Stevensville, MD

7:39 PM EST on November 19, 2017 (GMT -0500)
Stevensville

Weather History for KW29 - August, 2013

Change the Weather History Date:

Thursday, August 22, 2013

  Actual Average (KESN) Record (KESN)
Temperature  
Mean Temperature 79 °F -  
Max Temperature 87 °F 85 °F 95 °F (1959)
Min Temperature 71 °F 64 °F 51 °F (1949)
Cooling Degree Days 14    
Growing Degree Days 29 (Base 50)    
Moisture  
Dew Point 69 °F    
Average Humidity 74    
Maximum Humidity 100    
Minimum Humidity 46    
Precipitation  
Precipitation 0.00 in - - ()
Sea Level Pressure  
Sea Level Pressure 30.01 in    
Wind  
Wind Speed 5 mph (SW)    
Max Wind Speed 10 mph    
Max Gust Speed -    
Visibility 10 miles    
Events Rain , Thunderstorm    
Averages and records for this station are not official NWS values.
T = Trace of Precipitation, MM = Missing Value Source: NWS Daily Summary

Daily Weather History Graph

Daily Weather History Graph

Search for Another Location

Airport or City:

Trip Planner

Search our weather history database for the weather conditions in past years. The results will help you decide how hot, cold, wet, or windy it might be!

Date:

Astronomy

Aug. 22, 2013 Rise Set
Actual Time 6:25 AM EDT 7:50 PM EDT
Civil Twilight 5:57 AM EDT 8:18 PM EDT
Nautical Twilight 5:23 AM EDT 8:51 PM EDT
Astronomical Twilight 4:48 AM EDT 9:26 PM EDT
Moon 8:34 PM EDT (8/22) 8:10 AM EDT (8/22)
Length of Visible Light 14h 20m
Length of Day
13h 24m
Waning Gibbous, 97% of the Moon is Illuminated
Aug 22
Waning Gibbous
Aug 28
Last Quarter
Sep 5
New
Sep 12
First Quarter
Sep 19
Full

Hourly Weather History & Observations

Time (EDT) Temp. Heat Index Dew Point Humidity Pressure Visibility Wind Dir Wind Speed Gust Speed Precip Events Conditions
12:11 AM 77.0 °F - 73.4 °F 89% 30.09 in 10.0 mi South 10.4 mph - N/A   Clear
12:31 AM 77.0 °F - 73.4 °F 89% 30.10 in 10.0 mi South 8.1 mph - N/A Rain Light Rain
12:51 AM 75.2 °F - 73.4 °F 94% 30.10 in 10.0 mi SSW 4.6 mph - N/A Rain Light Rain
1:11 AM 75.2 °F - 73.4 °F 94% 30.09 in 10.0 mi South 5.8 mph - N/A Thunderstorm Unknown
1:31 AM 73.4 °F - 73.4 °F 100% 30.10 in 10.0 mi South 6.9 mph - N/A   Scattered Clouds
1:51 AM 73.4 °F - 71.6 °F 94% 30.09 in 10.0 mi SW 9.2 mph - N/A Thunderstorm Clear
2:11 AM 73.4 °F - 71.6 °F 94% 30.09 in 10.0 mi SW 6.9 mph - N/A   Clear
2:31 AM 73.4 °F - 71.6 °F 94% 30.07 in 10.0 mi SW 3.5 mph - N/A   Clear
2:51 AM 73.4 °F - 69.8 °F 88% 30.07 in 10.0 mi SSW 3.5 mph - N/A   Clear
3:11 AM 73.4 °F - 69.8 °F 88% 30.06 in 10.0 mi South 3.5 mph - N/A   Clear
3:31 AM 73.4 °F - 69.8 °F 88% 30.06 in 10.0 mi Calm Calm - N/A   Clear
3:51 AM 73.4 °F - 69.8 °F 88% 30.06 in 10.0 mi Calm Calm - N/A   Clear
4:11 AM 73.4 °F - 69.8 °F 88% 30.05 in 10.0 mi Calm Calm - N/A   Clear
4:31 AM 73.4 °F - 69.8 °F 88% 30.05 in 10.0 mi SW 3.5 mph - N/A   Clear
4:51 AM 73.4 °F - 69.8 °F 88% 30.05 in 10.0 mi SW 4.6 mph - N/A   Mostly Cloudy
5:11 AM 73.4 °F - 69.8 °F 88% 30.05 in 10.0 mi WSW 6.9 mph - N/A   Mostly Cloudy
5:31 AM 71.6 °F - 69.8 °F 94% 30.05 in 10.0 mi SSW 3.5 mph - N/A   Overcast
5:51 AM 71.6 °F - 69.8 °F 94% 30.05 in 10.0 mi Calm Calm - N/A   Mostly Cloudy
6:11 AM 73.4 °F - 69.8 °F 88% 30.05 in 10.0 mi Calm Calm - N/A   Mostly Cloudy
6:31 AM 73.4 °F - 69.8 °F 88% 30.06 in 10.0 mi Calm Calm - N/A   Overcast
6:51 AM 73.4 °F - 69.8 °F 88% 30.06 in 10.0 mi South 3.5 mph - N/A   Overcast
7:11 AM 73.4 °F - 69.8 °F 88% 30.06 in 10.0 mi SSW 3.5 mph - N/A   Mostly Cloudy
7:31 AM 73.4 °F - 69.8 °F 88% 30.07 in 10.0 mi SW 6.9 mph - N/A   Scattered Clouds
7:51 AM 73.4 °F - 71.6 °F 94% 30.06 in 10.0 mi SW 4.6 mph - N/A   Mostly Cloudy
8:11 AM 73.4 °F - 71.6 °F 94% 30.06 in 10.0 mi SW 5.8 mph - N/A   Mostly Cloudy
8:32 AM 73.4 °F - 71.6 °F 94% 30.07 in 10.0 mi SW 6.9 mph - N/A Thunderstorm Mostly Cloudy
8:52 AM 73.4 °F - 71.6 °F 94% 30.06 in 10.0 mi WSW 4.6 mph - N/A   Scattered Clouds
9:12 AM 73.4 °F - 71.6 °F 94% 30.06 in 10.0 mi SW 5.8 mph - N/A   Scattered Clouds
9:32 AM 77.0 °F - 71.6 °F 83% 30.05 in 10.0 mi SW 8.1 mph - N/A   Scattered Clouds
9:52 AM 77.0 °F - 69.8 °F 78% 30.05 in 10.0 mi SW 5.8 mph - N/A   Scattered Clouds
10:12 AM 77.0 °F - 69.8 °F 78% 30.05 in 10.0 mi West 3.5 mph - N/A   Clear
10:32 AM 77.0 °F - 69.8 °F 78% 30.05 in 10.0 mi SW 4.6 mph - N/A   Clear
10:52 AM 78.8 °F - 69.8 °F 74% 30.05 in 10.0 mi West 3.5 mph - N/A   Clear
11:12 AM 78.8 °F - 69.8 °F 74% 30.05 in 10.0 mi West 3.5 mph - N/A   Clear
11:32 AM 80.6 °F 83.9 °F 69.8 °F 70% 30.05 in 10.0 mi West 3.5 mph - N/A   Clear
11:52 AM 80.6 °F 83.2 °F 68.0 °F 65% 30.05 in 10.0 mi West 3.5 mph - N/A   Clear
12:12 PM 82.4 °F 85.4 °F 68.0 °F 62% 30.04 in 10.0 mi WNW 3.5 mph - N/A   Clear
12:32 PM 80.6 °F 83.2 °F 68.0 °F 65% 30.03 in 10.0 mi WSW 3.5 mph - N/A   Clear
12:52 PM 82.4 °F 85.4 °F 68.0 °F 62% 30.02 in 10.0 mi WSW 3.5 mph - N/A   Clear
1:12 PM 82.4 °F 85.4 °F 68.0 °F 62% 30.02 in 10.0 mi Calm Calm - N/A   Clear
1:32 PM 84.2 °F 86.6 °F 66.2 °F 55% 30.01 in 10.0 mi SW 3.5 mph - N/A   Clear
1:52 PM 84.2 °F 87.3 °F 68.0 °F 58% 30.00 in 10.0 mi WNW 4.6 mph - N/A   Clear
2:12 PM 86.0 °F 88.2 °F 66.2 °F 51% 29.99 in 10.0 mi West 5.8 mph - N/A   Clear
2:32 PM 86.0 °F 87.3 °F 64.4 °F 48% 29.98 in 10.0 mi SSW 4.6 mph - N/A   Clear
2:52 PM 87.8 °F 89.4 °F 64.4 °F 46% 29.97 in 10.0 mi SW 6.9 mph - N/A Thunderstorm Clear
3:12 PM 86.0 °F 89.4 °F 68.0 °F 55% 29.97 in 10.0 mi North 5.8 mph - N/A   Scattered Clouds
3:32 PM 86.0 °F 88.2 °F 66.2 °F 51% 29.96 in 10.0 mi West 3.5 mph - N/A   Clear
3:52 PM 86.0 °F 87.3 °F 64.4 °F 48% 29.95 in 10.0 mi SW 4.6 mph - N/A   Clear
4:12 PM 86.0 °F 88.2 °F 66.2 °F 51% 29.95 in 10.0 mi SW 5.8 mph - N/A   Clear
4:32 PM 87.8 °F 89.4 °F 64.4 °F 46% 29.94 in 10.0 mi SW 5.8 mph - N/A Thunderstorm Clear
4:52 PM 86.0 °F 88.2 °F 66.2 °F 51% 29.95 in 10.0 mi SSW 5.8 mph - N/A Thunderstorm Clear
5:13 PM 86.0 °F 88.2 °F 66.2 °F 51% 29.94 in 10.0 mi South 6.9 mph - N/A Thunderstorm Clear
5:33 PM 82.4 °F 85.4 °F 68.0 °F 62% 29.94 in 10.0 mi South 4.6 mph - N/A   Clear
5:53 PM 82.4 °F 86.3 °F 69.8 °F 66% 29.94 in 10.0 mi Calm Calm - N/A   Clear
6:13 PM 84.2 °F 87.3 °F 68.0 °F 58% 29.94 in 10.0 mi WSW 3.5 mph - N/A   Clear
6:33 PM 86.0 °F 88.2 °F 66.2 °F 51% 29.93 in 10.0 mi West 6.9 mph - N/A   Clear
6:53 PM 82.4 °F 84.6 °F 66.2 °F 58% 29.93 in 10.0 mi West 8.1 mph - N/A   Clear
7:13 PM 82.4 °F 83.9 °F 64.4 °F 54% 29.93 in 10.0 mi WNW 8.1 mph - N/A   Clear
7:33 PM 82.4 °F 83.9 °F 64.4 °F 54% 29.94 in 10.0 mi WNW 8.1 mph - N/A   Clear
7:53 PM 82.4 °F 84.6 °F 66.2 °F 58% 29.94 in 10.0 mi West 3.5 mph - N/A   Clear
8:13 PM 80.6 °F 82.3 °F 64.4 °F 58% 29.94 in 10.0 mi Calm Calm - N/A   Clear
8:33 PM 80.6 °F 82.7 °F 66.2 °F 61% 29.94 in 10.0 mi Calm Calm - N/A   Clear
8:53 PM 78.8 °F - 66.2 °F 65% 29.94 in 10.0 mi Calm Calm - N/A   Clear
9:13 PM 78.8 °F - 66.2 °F 65% 29.95 in 10.0 mi Calm Calm - N/A   Clear
9:33 PM 78.8 °F - 68.0 °F 69% 29.95 in 10.0 mi Calm Calm - N/A   Clear
9:53 PM 78.8 °F - 69.8 °F 74% 29.95 in 10.0 mi SSW 3.5 mph - N/A   Clear
10:13 PM 78.8 °F - 69.8 °F 74% 29.95 in 10.0 mi SSW 3.5 mph - N/A   Clear
10:33 PM 78.8 °F - 69.8 °F 74% 29.96 in 10.0 mi SW 5.8 mph - N/A   Scattered Clouds
10:53 PM 78.8 °F - 69.8 °F 74% 29.95 in 10.0 mi SW 4.6 mph - N/A   Scattered Clouds
11:13 PM 78.8 °F - 69.8 °F 74% 29.95 in 10.0 mi SW 5.8 mph - N/A   Clear
11:33 PM 78.8 °F - 68.0 °F 69% 29.95 in 10.0 mi WSW 5.8 mph - N/A   Clear
11:53 PM 78.8 °F - 68.0 °F 69% 29.95 in 10.0 mi West 8.1 mph - N/A   Clear